"Period start","avg(HW err(1)/warn(2) (#))","avg(Visibility (m))","avg(Weather code (#))","avg(Precip intensity (mm/h))","min(HW err(1)/warn(2) (#))","max(HW err(1)/warn(2) (#))","std(HW err(1)/warn(2) (#))","med(HW err(1)/warn(2) (#))","min(Visibility (m))","max(Visibility (m))","std(Visibility (m))","med(Visibility (m))","min(Weather code (#))","max(Weather code (#))","std(Weather code (#))","med(Weather code (#))","min(Precip intensity (mm/h))","max(Precip intensity (mm/h))","std(Precip intensity (mm/h))","med(Precip intensity (mm/h))"
2013-07-19 00:00:00,0,48234,0,0.00,0,0,0,0,41175,50000,2720,50000,0,0,0,0,0.00,0.00,0.00,0.00
2013-07-19 00:10:00,0,47544,0,0.00,0,0,0,0,43363,50000,2356,48234,0,0,0,0,0.00,0.00,0.00,0.00
2013-07-19 00:20:00,0,47084,0,0.00,0,0,0,0,38545,50000,3365,48106,0,0,0,0,0.00,0.00,0.00,0.00
2013-07-19 00:30:00,0,48965,0,0.00,0,0,0,0,43614,50000,2020,50000,0,0,0,0,0.00,0.00,0.00,0.00
2013-07-19 00:40:00,0,47976,0,0.00,0,0,0,0,43164,50000,3025,50000,0,0,0,0,0.00,0.00,0.00,0.00
2013-07-19 00:50:00,0,47299,0,0.00,0,0,0,0,41439,50000,3126,48982,0,0,0,0,0.00,0.00,0.00,0.00
2013-07-19 01:00:00,0,46692,0,0.00,0,0,0,0,38283,50000,4457,49644,0,0,0,0,0.00,0.00,0.00,0.00
2013-07-19 01:10:00,0,47157,0,0.00,0,0,0,0,39988,50000,3123,48792,0,0,0,0,0.00,0.00,0.00,0.00
2013-07-19 01:20:00,0,48558,0,0.00,0,2,1,0,43437,50000,2097,50000,0,0,0,0,0.00,0.00,0.00,0.00
2013-07-19 01:30:00,2,47944,0,0.00,2,2,0,2,37815,50000,3542,49283,0,0,0,0,0.00,0.00,0.00,0.00
2013-07-19 01:40:00,1,47867,0,0.00,0,2,1,2,40595,50000,2842,49000,0,0,0,0,0.00,0.00,0.00,0.00
2013-07-19 01:50:00,0,46200,0,0.00,0,0,0,0,38091,50000,4610,48371,0,0,0,0,0.00,0.00,0.00,0.00
2013-07-19 02:00:00,0,46730,0,0.00,0,2,1,0,43222,50000,2420,45532,0,0,0,0,0.00,0.00,0.00,0.00
2013-07-19 02:10:00,0,49708,0,0.00,0,0,0,0,48238,50000,535,50000,0,0,0,0,0.00,0.00,0.00,0.00
2013-07-19 02:20:00,0,47258,0,0.00,0,0,0,0,42403,50000,2213,47684,0,0,0,0,0.00,0.00,0.00,0.00
2013-07-19 02:30:00,0,39999,0,0.00,0,0,0,0,26752,50000,7715,41840,0,0,0,0,0.00,0.00,0.00,0.00
2013-07-19 02:40:00,0,48449,0,0.00,0,0,0,0,43822,50000,1886,48980,0,0,0,0,0.00,0.00,0.00,0.00
2013-07-19 02:50:00,0,48526,0,0.00,0,0,0,0,41565,50000,2433,49176,0,0,0,0,0.00,0.00,0.00,0.00
2013-07-19 03:00:00,0,45600,0,0.00,0,0,0,0,38144,50000,3972,46423,0,0,0,0,0.00,0.00,0.00,0.00
2013-07-19 03:10:00,0,47831,0,0.00,0,0,0,0,39756,50000,3941,50000,0,0,0,0,0.00,0.00,0.00,0.00
2013-07-19 03:20:00,0,48476,0,0.00,0,0,0,0,40583,50000,2803,49968,0,0,0,0,0.00,0.00,0.00,0.00
2013-07-19 03:30:00,0,49117,0,0.00,0,0,0,0,45921,50000,1544,50000,0,0,0,0,0.00,0.00,0.00,0.00
2013-07-19 03:40:00,0,49632,0,0.00,0,0,0,0,47198,50000,853,50000,0,0,0,0,0.00,0.00,0.00,0.00
2013-07-19 03:50:00,0,45001,0,0.00,0,0,0,0,34400,50000,5839,47776,0,0,0,0,0.00,0.00,0.00,0.00
2013-07-19 04:00:00,0,48112,0,0.00,0,0,0,0,42622,50000,2178,48856,0,0,0,0,0.00,0.00,0.00,0.00
2013-07-19 04:10:00,0,48933,0,0.00,0,0,0,0,46559,50000,1169,49237,0,0,0,0,0.00,0.00,0.00,0.00
2013-07-19 04:20:00,0,43735,0,0.00,0,0,0,0,33208,50000,5358,45636,0,0,0,0,0.00,0.00,0.00,0.00
2013-07-19 04:30:00,0,44460,0,0.00,0,0,0,0,35981,50000,4382,44318,0,0,0,0,0.00,0.00,0.00,0.00
2013-07-19 04:40:00,0,48954,0,0.00,0,0,0,0,42709,50000,2231,50000,0,0,0,0,0.00,0.00,0.00,0.00
2013-07-19 04:50:00,0,49041,0,0.00,0,0,0,0,45304,50000,1512,50000,0,0,0,0,0.00,0.00,0.00,0.00
2013-07-19 05:00:00,0,47679,0,0.00,0,0,0,0,43215,50000,2687,49247,0,0,0,0,0.00,0.00,0.00,0.00
2013-07-19 05:10:00,0,46651,0,0.00,0,0,0,0,39721,50000,3843,47804,0,0,0,0,0.00,0.00,0.00,0.00
2013-07-19 05:20:00,0,49551,0,0.00,0,0,0,0,48708,50000,463,49598,0,0,0,0,0.00,0.00,0.00,0.00
2013-07-19 05:30:00,0,49128,0,0.00,0,2,1,0,46727,50000,1201,49794,0,0,0,0,0.00,0.00,0.00,0.00
2013-07-19 05:40:00,0,43586,0,0.00,0,0,0,0,36359,50000,4340,44148,0,0,0,0,0.00,0.00,0.00,0.00
2013-07-19 05:50:00,0,47741,0,0.00,0,0,0,0,41910,50000,2622,48612,0,0,0,0,0.00,0.00,0.00,0.00
2013-07-19 06:00:00,0,49363,0,0.00,0,0,0,0,47114,50000,864,49688,0,0,0,0,0.00,0.00,0.00,0.00
2013-07-19 06:10:00,0,39736,0,0.00,0,0,0,0,17294,50000,11573,45559,0,0,0,0,0.00,0.00,0.00,0.00
2013-07-19 06:20:00,0,43380,0,0.00,0,0,0,0,29222,50000,7001,44517,0,0,0,0,0.00,0.00,0.00,0.00
2013-07-19 06:30:00,0,48255,0,0.00,0,0,0,0,42551,50000,2293,48895,0,0,0,0,0.00,0.00,0.00,0.00
2013-07-19 06:40:00,0,43377,0,0.00,0,0,0,0,37932,46442,2805,44030,0,0,0,0,0.00,0.00,0.00,0.00
2013-07-19 06:50:00,0,43616,0,0.00,0,0,0,0,36621,50000,4513,43912,0,0,0,0,0.00,0.00,0.00,0.00
2013-07-19 07:00:00,0,43747,0,0.00,0,0,0,0,25190,50000,8008,47596,0,0,0,0,0.00,0.00,0.00,0.00
2013-07-19 07:10:00,0,42112,0,0.00,0,0,0,0,14401,50000,12155,50000,0,0,0,0,0.00,0.00,0.00,0.00
2013-07-19 07:20:00,0,46518,0,0.00,0,0,0,0,35596,50000,4668,49076,0,0,0,0,0.00,0.00,0.00,0.00
2013-07-19 07:30:00,0,35332,0,0.00,0,0,0,0,20020,50000,9488,33910,0,0,0,0,0.00,0.00,0.00,0.00
2013-07-19 07:40:00,0,47676,0,0.00,0,0,0,0,40136,50000,3086,49329,0,0,0,0,0.00,0.00,0.00,0.00
2013-07-19 07:50:00,0,38834,0,0.00,0,0,0,0,24402,50000,8019,38406,0,0,0,0,0.00,0.00,0.00,0.00
2013-07-19 08:00:00,0,46943,0,0.00,0,0,0,0,35432,50000,4287,48686,0,0,0,0,0.00,0.00,0.00,0.00
2013-07-19 08:10:00,0,44005,0,0.00,0,0,0,0,35453,50000,5452,44432,0,0,0,0,0.00,0.00,0.00,0.00
2013-07-19 08:20:00,0,43768,0,0.00,0,0,0,0,36653,50000,4042,43578,0,0,0,0,0.00,0.00,0.00,0.00
2013-07-19 08:30:00,0,46884,0,0.00,0,0,0,0,38206,50000,3924,48174,0,0,0,0,0.00,0.00,0.00,0.00
2013-07-19 08:40:00,0,45670,0,0.00,0,0,0,0,38946,50000,4040,45732,0,0,0,0,0.00,0.00,0.00,0.00
2013-07-19 08:50:00,0,46892,0,0.00,0,0,0,0,35457,50000,5017,49208,0,0,0,0,0.00,0.00,0.00,0.00
2013-07-19 09:00:00,0,47000,0,0.00,0,0,0,0,37605,50000,4146,49376,0,0,0,0,0.00,0.00,0.00,0.00
2013-07-19 09:10:00,0,48639,0,0.00,0,0,0,0,42315,50000,2235,49684,0,0,0,0,0.00,0.00,0.00,0.00
2013-07-19 09:20:00,0,48395,0,0.00,0,0,0,0,43854,50000,1978,49213,0,0,0,0,0.00,0.00,0.00,0.00
2013-07-19 09:30:00,0,41669,0,0.00,0,0,0,0,37820,44228,2097,41914,0,0,0,0,0.00,0.00,0.00,0.00
2013-07-19 09:40:00,0,47947,0,0.00,0,0,0,0,40399,50000,3102,49327,0,0,0,0,0.00,0.00,0.00,0.00
2013-07-19 09:50:00,0,43557,0,0.00,0,0,0,0,32009,50000,5369,45027,0,0,0,0,0.00,0.00,0.00,0.00
2013-07-19 10:00:00,0,44363,0,0.00,0,0,0,0,32505,50000,5808,45684,0,0,0,0,0.00,0.00,0.00,0.00
2013-07-19 10:10:00,0,48992,0,0.00,0,0,0,0,46288,50000,1258,49718,0,0,0,0,0.00,0.00,0.00,0.00
2013-07-19 10:20:00,0,43106,0,0.00,0,0,0,0,33395,50000,4628,44160,0,0,0,0,0.00,0.00,0.00,0.00
2013-07-19 10:30:00,0,49250,0,0.00,0,0,0,0,46848,50000,1096,49955,0,0,0,0,0.00,0.00,0.00,0.00
2013-07-19 10:40:00,0,40821,0,0.00,0,0,0,0,19790,50000,9588,44842,0,0,0,0,0.00,0.00,0.00,0.00
2013-07-19 10:50:00,0,47203,0,0.00,0,0,0,0,39064,50000,4164,50000,0,0,0,0,0.00,0.00,0.00,0.00
2013-07-19 11:00:00,0,48970,0,0.00,0,0,0,0,46901,50000,1116,49380,0,0,0,0,0.00,0.00,0.00,0.00
2013-07-19 11:10:00,0,41405,0,0.00,0,0,0,0,22404,50000,8715,44468,0,0,0,0,0.00,0.00,0.00,0.00
2013-07-19 11:20:00,0,48779,0,0.00,0,0,0,0,41853,50000,2607,50000,0,0,0,0,0.00,0.00,0.00,0.00
2013-07-19 11:30:00,0,50000,0,0.00,0,0,0,0,50000,50000,0,50000,0,0,0,0,0.00,0.00,0.00,0.00
2013-07-19 11:40:00,0,49983,0,0.00,0,0,0,0,49830,50000,51,50000,0,0,0,0,0.00,0.00,0.00,0.00
2013-07-19 11:50:00,0,50000,0,0.00,0,0,0,0,50000,50000,0,50000,0,0,0,0,0.00,0.00,0.00,0.00
2013-07-19 12:00:00,0,48683,0,0.00,0,0,0,0,42603,50000,2326,50000,0,0,0,0,0.00,0.00,0.00,0.00
2013-07-19 12:10:00,0,47982,0,0.00,0,0,0,0,41007,50000,3106,50000,0,0,0,0,0.00,0.00,0.00,0.00
2013-07-19 12:20:00,0,43536,0,0.00,0,0,0,0,10355,50000,11884,49389,0,0,0,0,0.00,0.00,0.00,0.00
2013-07-19 12:30:00,0,8860,1,0.00,0,0,0,0,6588,11220,1475,8583,0,10,3,0,0.00,0.00,0.00,0.00
2013-07-19 12:40:00,2,1535,14,0.00,0,2,1,2,354,6802,1813,934,10,34,9,10,0.00,0.00,0.00,0.00
2013-07-19 12:50:00,2,434,34,0.00,2,2,0,2,333,621,82,400,34,34,0,34,0.00,0.00,0.00,0.00
2013-07-19 13:00:00,2,425,34,0.00,2,2,0,2,354,541,55,418,34,34,0,34,0.00,0.00,0.00,0.00
2013-07-19 13:10:00,2,293,34,0.00,2,2,0,2,245,383,43,276,34,34,0,34,0.00,0.00,0.00,0.00
2013-07-19 13:20:00,2,258,34,0.00,2,2,0,2,232,292,16,259,34,34,0,34,0.00,0.00,0.00,0.00
2013-07-19 13:30:00,2,230,34,0.00,2,2,0,2,205,266,21,220,34,34,0,34,0.00,0.00,0.00,0.00
2013-07-19 13:40:00,2,298,34,0.00,2,2,0,2,190,472,102,267,34,34,0,34,0.00,0.00,0.00,0.00
2013-07-19 13:50:00,2,462,34,0.00,2,2,0,2,238,667,139,491,34,34,0,34,0.00,0.00,0.00,0.00
2013-07-19 14:00:00,2,837,33,0.00,0,2,1,2,647,1140,185,763,32,34,1,33,0.00,0.00,0.00,0.00
2013-07-19 14:10:00,2,1328,31,0.00,0,2,1,2,717,2379,506,1242,30,32,1,32,0.00,0.00,0.00,0.00
2013-07-19 14:20:00,2,758,28,0.00,2,2,0,2,573,1323,212,685,20,32,5,31,0.00,0.00,0.00,0.00
2013-07-19 14:30:00,2,418,32,0.00,2,2,0,2,255,647,130,408,32,32,0,32,0.00,0.00,0.00,0.00
2013-07-19 14:40:00,2,260,33,0.00,2,2,0,2,232,320,23,256,32,34,1,33,0.00,0.00,0.00,0.00
2013-07-19 14:50:00,2,473,43,0.97,2,2,0,2,237,815,195,404,34,61,11,34,0.00,3.15,1.24,0.00
2013-07-19 15:00:00,2,701,56,2.31,2,2,0,2,580,903,97,700,52,61,4,56,1.40,3.75,0.60,2.20
2013-07-19 15:10:00,2,764,52,1.04,2,2,0,2,589,1004,115,752,51,61,3,51,0.85,1.40,0.16,0.97
2013-07-19 15:20:00,2,689,51,1.30,2,2,0,2,539,852,79,684,51,52,0,51,0.35,2.35,0.60,1.08
2013-07-19 15:30:00,2,534,47,0.15,2,2,0,2,421,695,85,547,32,51,6,51,0.00,0.85,0.26,0.03
2013-07-19 15:40:00,2,378,32,0.00,2,2,0,2,351,425,20,376,32,33,0,32,0.00,0.00,0.00,0.00
2013-07-19 15:50:00,2,433,34,0.00,2,2,0,2,391,461,21,438,34,34,0,34,0.00,0.00,0.00,0.00
2013-07-19 16:00:00,2,337,34,0.00,2,2,0,2,267,492,70,311,34,34,0,34,0.00,0.00,0.00,0.00
2013-07-19 16:10:00,2,4173,34,0.00,2,2,0,2,649,9677,2941,4887,34,34,0,34,0.00,0.00,0.00,0.00
2013-07-19 16:20:00,2,33443,21,0.00,2,2,0,2,5584,50000,15045,37254,20,34,4,20,0.00,0.00,0.00,0.00
2013-07-19 16:30:00,2,47818,20,0.00,2,2,0,2,41930,50000,2809,49498,20,20,0,20,0.00,0.00,0.00,0.00
2013-07-19 16:40:00,2,49901,20,0.00,2,2,0,2,49011,50000,297,50000,20,20,0,20,0.00,0.00,0.00,0.00
2013-07-19 16:50:00,2,50000,20,0.00,2,2,0,2,50000,50000,0,50000,20,20,0,20,0.00,0.00,0.00,0.00
2013-07-19 17:00:00,2,50000,20,0.00,2,2,0,2,50000,50000,0,50000,20,20,0,20,0.00,0.00,0.00,0.00
2013-07-19 17:10:00,2,41661,20,0.00,2,2,0,2,19363,50000,12153,50000,20,20,0,20,0.00,0.00,0.00,0.00
2013-07-19 17:20:00,2,15255,0,0.00,2,2,0,2,11948,24046,3358,14993,0,0,0,0,0.00,0.00,0.00,0.00
2013-07-19 17:30:00,2,10395,0,0.00,2,2,0,2,5221,16727,3417,10280,0,0,0,0,0.00,0.00,0.00,0.00
2013-07-19 17:40:00,2,3119,10,0.00,2,2,0,2,1685,4369,782,3082,10,10,0,10,0.00,0.00,0.00,0.00
2013-07-19 17:50:00,2,1017,12,0.00,2,2,0,2,749,1279,178,991,10,30,6,10,0.00,0.00,0.00,0.00
2013-07-19 18:00:00,2,629,33,0.00,2,2,0,2,471,866,111,602,30,34,2,34,0.00,0.00,0.00,0.00
2013-07-19 18:10:00,2,1164,34,0.00,2,2,0,2,623,1477,301,1275,34,34,0,34,0.00,0.00,0.00,0.00
2013-07-19 18:20:00,2,1535,23,0.00,2,2,0,2,1424,1625,54,1525,20,34,6,20,0.00,0.00,0.00,0.00
2013-07-19 18:30:00,2,1536,20,0.00,2,2,0,2,1360,1750,131,1519,20,20,0,20,0.00,0.00,0.00,0.00
2013-07-19 18:40:00,2,1064,20,0.00,2,2,0,2,848,1199,134,1109,20,20,0,20,0.00,0.00,0.00,0.00
2013-07-19 18:50:00,2,633,31,0.00,2,2,0,2,517,755,79,644,20,33,4,32,0.00,0.00,0.00,0.00
2013-07-19 19:00:00,2,468,34,0.00,2,2,0,2,438,505,22,469,33,34,0,34,0.00,0.00,0.00,0.00
2013-07-19 19:10:00,2,499,34,0.00,2,2,0,2,465,568,32,486,34,34,0,34,0.00,0.00,0.00,0.00
2013-07-19 19:20:00,2,493,34,0.00,2,2,0,2,455,547,28,488,34,34,0,34,0.00,0.00,0.00,0.00
2013-07-19 19:30:00,2,560,34,0.00,2,2,0,2,508,604,27,560,34,34,0,34,0.00,0.00,0.00,0.00
2013-07-19 19:40:00,2,577,34,0.00,2,2,0,2,500,694,52,570,33,34,0,34,0.00,0.00,0.00,0.00
2013-07-19 19:50:00,2,756,33,0.00,2,2,0,2,677,839,43,751,33,33,0,33,0.00,0.00,0.00,0.00
2013-07-19 20:00:00,2,778,32,0.00,2,2,0,2,725,863,44,760,30,33,1,32,0.00,0.00,0.00,0.00
2013-07-19 20:10:00,2,941,32,0.00,2,2,0,2,738,1095,116,950,32,32,0,32,0.00,0.00,0.00,0.00
2013-07-19 20:20:00,2,1032,30,0.00,2,2,0,2,842,1387,191,932,30,32,1,30,0.00,0.00,0.00,0.00
2013-07-19 20:30:00,2,1672,24,0.00,2,2,0,2,1553,1766,62,1671,20,30,5,20,0.00,0.00,0.00,0.00
2013-07-19 20:40:00,2,1641,20,0.00,2,2,0,2,1571,1766,55,1631,20,20,0,20,0.00,0.00,0.00,0.00
2013-07-19 20:50:00,2,1697,20,0.00,2,2,0,2,1592,1831,68,1702,20,20,0,20,0.00,0.00,0.00,0.00
2013-07-19 21:00:00,2,1916,20,0.00,2,2,0,2,1820,2094,101,1870,20,20,0,20,0.00,0.00,0.00,0.00
2013-07-19 21:10:00,2,2341,20,0.00,2,2,0,2,2022,2604,162,2344,20,20,0,20,0.00,0.00,0.00,0.00
2013-07-19 21:20:00,2,2045,20,0.00,2,2,0,2,1726,2304,179,2081,20,20,0,20,0.00,0.00,0.00,0.00
2013-07-19 21:30:00,2,1548,13,0.00,2,2,0,2,1462,1652,53,1550,10,20,5,10,0.00,0.00,0.00,0.00
2013-07-19 21:40:00,2,1410,10,0.00,2,2,0,2,1278,1542,88,1412,10,10,0,10,0.00,0.00,0.00,0.00
2013-07-19 21:50:00,2,1372,10,0.00,2,2,0,2,1291,1421,35,1377,10,10,0,10,0.00,0.00,0.00,0.00
2013-07-19 22:00:00,2,1452,10,0.00,2,2,0,2,1366,1532,52,1456,10,10,0,10,0.00,0.00,0.00,0.00
2013-07-19 22:10:00,2,1514,10,0.00,2,2,0,2,1436,1637,59,1508,10,10,0,10,0.00,0.00,0.00,0.00
2013-07-19 22:20:00,2,1605,10,0.00,2,2,0,2,1566,1722,45,1588,10,10,0,10,0.00,0.00,0.00,0.00
2013-07-19 22:30:00,2,1634,10,0.00,2,2,0,2,1565,1745,47,1622,10,10,0,10,0.00,0.00,0.00,0.00
2013-07-19 22:40:00,2,1671,10,0.00,2,2,0,2,1615,1713,28,1672,10,10,0,10,0.00,0.00,0.00,0.00
2013-07-19 22:50:00,2,1836,10,0.00,2,2,0,2,1615,2006,121,1868,10,10,0,10,0.00,0.00,0.00,0.00
2013-07-19 23:00:00,2,2147,10,0.00,2,2,0,2,1913,2348,140,2146,10,10,0,10,0.00,0.00,0.00,0.00
2013-07-19 23:10:00,2,2370,10,0.00,2,2,0,2,2222,2566,100,2379,10,10,0,10,0.00,0.00,0.00,0.00
2013-07-19 23:20:00,2,2379,10,0.00,2,2,0,2,1880,2898,322,2342,10,10,0,10,0.00,0.00,0.00,0.00
2013-07-19 23:30:00,2,2271,10,0.00,2,2,0,2,1760,2971,413,2207,10,10,0,10,0.00,0.00,0.00,0.00
2013-07-19 23:40:00,2,2853,10,0.00,2,2,0,2,1992,3990,619,2721,10,10,0,10,0.00,0.00,0.00,0.00
2013-07-19 23:50:00,2,4508,10,0.00,2,2,0,2,3043,6413,877,4438,10,10,0,10,0.00,0.00,0.00,0.00
